Bellaire, MI

5:46 AM EDT on September 26, 2017 (GMT -0400)
Antrim County

Weather History for KACB - February, 2014

Change the Weather History Date:

Thursday, February 27, 2014

  Actual Average (KCVX) Record (KCVX)
Temperature  
Mean Temperature -4 °F -  
Max Temperature 10 °F 48 °F 46 °F (2016)
Min Temperature -20 °F 32 °F -17 °F (2015)
Degree Days  
Heating Degree Days 69    
Moisture  
Dew Point -11 °F    
Average Humidity 64    
Maximum Humidity 81    
Minimum Humidity 37    
Precipitation  
Precipitation 0.00 in - - ()
Sea Level Pressure  
Sea Level Pressure 29.89 in    
Wind  
Wind Speed 6 mph (NW)    
Max Wind Speed 20 mph    
Max Gust Speed 30 mph    
Visibility 7 miles    
Events Snow    
Averages and records for this station are not official NWS values.
T = Trace of Precipitation, MM = Missing Value Source: NWS Daily Summary

Daily Weather History Graph

Daily Weather History Graph

Search for Another Location

Airport or City:

Trip Planner

Search our weather history database for the weather conditions in past years. The results will help you decide how hot, cold, wet, or windy it might be!

Date:

Astronomy

Feb. 27, 2014 Rise Set
Actual Time 7:22 AM EST 6:25 PM EST
Civil Twilight 6:52 AM EST 6:55 PM EST
Nautical Twilight 6:18 AM EST 7:29 PM EST
Astronomical Twilight 5:44 AM EST 8:03 PM EST
Moon 5:57 AM EST (2/27) 4:48 PM EST (2/27)
Length of Visible Light 12h 02m
Length of Day
11h 03m
Waning Crescent, 4% of the Moon is Illuminated
Feb 27
Waning Crescent
Mar 1
New
Mar 8
First Quarter
Mar 16
Full
Mar 23
Last Quarter

Hourly Weather History & Observations

Time (EST) Temp. Windchill Dew Point Humidity Pressure Visibility Wind Dir Wind Speed Gust Speed Precip Events Conditions
12:14 AM 11.1 °F - 4.6 °F 75% 29.45 in 5.0 mi Calm Calm - N/A Snow Light Snow
12:35 AM 10.4 °F - 4.5 °F 77% 29.45 in 10.0 mi Calm Calm - N/A   Overcast
12:55 AM 10.0 °F - 4.8 °F 79% 29.44 in 5.0 mi Calm Calm - N/A Snow Light Snow
1:14 AM 10.6 °F 4.3 °F 5.2 °F 79% 29.44 in 2.5 mi NW 3.5 mph - N/A Snow Light Snow
1:35 AM 9.7 °F -4.2 °F 5.0 °F 81% 29.47 in 0.5 mi North 10.4 mph 25.3 mph N/A Snow Heavy Snow
1:55 AM 6.8 °F -6.9 °F 1.9 °F 80% 29.49 in 1.0 mi North 9.2 mph 20.7 mph N/A Snow Light Snow
2:14 AM 6.6 °F -5.0 °F 0.5 °F 76% 29.49 in 3.0 mi North 6.9 mph 17.3 mph N/A Snow Light Snow
2:35 AM 5.9 °F -4.5 °F -2.4 °F 69% 29.50 in 10.0 mi North 5.8 mph 18.4 mph N/A   Overcast
2:55 AM 5.7 °F -3.2 °F -4.0 °F 64% 29.51 in 10.0 mi North 4.6 mph - N/A   Overcast
3:15 AM 5.0 °F -4.1 °F -4.0 °F 66% 29.53 in 10.0 mi North 4.6 mph - N/A   Overcast
3:35 AM 3.9 °F -3.4 °F -3.8 °F 70% 29.54 in 10.0 mi North 3.5 mph - N/A   Overcast
3:55 AM 2.8 °F -6.6 °F -3.6 °F 74% 29.57 in 10.0 mi North 4.6 mph - N/A   Overcast
4:15 AM 2.8 °F -8.2 °F -5.1 °F 70% 29.57 in 10.0 mi NNW 5.8 mph 18.4 mph N/A   Overcast
4:35 AM 2.3 °F -11.4 °F -7.2 °F 64% 29.59 in 10.0 mi North 8.1 mph - N/A   Overcast
4:55 AM 1.8 °F -12.0 °F -8.0 °F 64% 29.60 in 10.0 mi North 8.1 mph - N/A   Overcast
5:15 AM 1.2 °F -11.5 °F -8.0 °F 65% 29.62 in 10.0 mi NW 6.9 mph 17.3 mph N/A   Overcast
5:35 AM 1.2 °F -12.7 °F -7.1 °F 68% 29.64 in 5.0 mi NW 8.1 mph - N/A   Haze
5:55 AM 1.0 °F -14.9 °F -4.9 °F 76% 29.65 in 3.0 mi NW 10.4 mph - N/A Snow Light Snow
6:15 AM 1.0 °F -17.3 °F -10.5 °F 59% 29.66 in 5.0 mi NW 13.8 mph 23.0 mph N/A   Haze
6:35 AM 0.5 °F -18.0 °F -11.7 °F 56% 29.68 in 4.0 mi NNW 13.8 mph 27.6 mph N/A   Haze
6:55 AM 0.1 °F -19.2 °F -12.3 °F 56% 29.70 in 7.0 mi WNW 15.0 mph 24.2 mph N/A   Scattered Clouds
7:15 AM -0.4 °F -17.6 °F -11.9 °F 58% 29.71 in 7.0 mi NW 11.5 mph 20.7 mph N/A   Scattered Clouds
7:35 AM -0.0 °F -15.3 °F -7.4 °F 71% 29.73 in 0.8 mi NW 9.2 mph 27.6 mph N/A Snow Light Snow
7:55 AM -0.2 °F -16.5 °F -7.6 °F 71% 29.75 in 1.0 mi NW 10.4 mph 27.6 mph N/A Snow Light Snow
8:15 AM -0.4 °F -18.4 °F -9.8 °F 65% 29.77 in 3.0 mi NW 12.7 mph 26.5 mph N/A   Haze
8:35 AM -0.6 °F -20.1 °F -11.4 °F 60% 29.78 in 4.0 mi NNW 15.0 mph 24.2 mph N/A   Haze
8:55 AM -0.6 °F -17.8 °F -11.6 °F 60% 29.80 in 3.0 mi NNW 11.5 mph 23.0 mph N/A   Haze
9:15 AM -0.4 °F -19.2 °F -11.7 °F 59% 29.82 in 5.0 mi NNW 13.8 mph 25.3 mph N/A   Haze
9:35 AM -0.6 °F -19.4 °F -12.6 °F 57% 29.83 in 3.0 mi NNW 13.8 mph 25.3 mph N/A   Haze
9:55 AM -0.4 °F -21.7 °F -13.2 °F 55% 29.85 in 1.2 mi NW 18.4 mph 29.9 mph N/A   Haze
10:15 AM 0.1 °F -21.6 °F -13.5 °F 53% 29.87 in 3.0 mi NNW 19.6 mph 26.5 mph N/A   Haze
10:35 AM 0.5 °F -18.7 °F -13.4 °F 52% 29.88 in 5.0 mi NNW 15.0 mph 25.3 mph N/A   Haze
10:55 AM 1.4 °F -18.8 °F -12.1 °F 53% 29.90 in 4.0 mi NNW 17.3 mph 24.2 mph N/A   Haze
11:15 AM 1.4 °F -12.5 °F -11.7 °F 54% 29.92 in 4.0 mi NW 8.1 mph 25.3 mph N/A   Haze
11:35 AM 0.9 °F -16.0 °F -8.7 °F 64% 29.93 in 1.0 mi NW 11.5 mph 17.3 mph N/A Snow Light Snow
11:55 AM 1.4 °F -18.2 °F -7.6 °F 66% 29.95 in 1.0 mi WNW 16.1 mph 25.3 mph N/A   Haze
12:15 PM 1.8 °F -10.8 °F -10.8 °F 56% 29.96 in 5.0 mi WNW 6.9 mph 17.3 mph N/A   Haze
12:35 PM 1.4 °F -16.1 °F -11.4 °F 55% 29.97 in 4.0 mi NW 12.7 mph 21.9 mph N/A   Haze
12:55 PM 1.0 °F -12.9 °F -8.7 °F 64% 29.99 in 1.2 mi NW 8.1 mph - N/A Snow Light Snow
1:15 PM 1.2 °F -12.7 °F -6.9 °F 69% 29.99 in 1.0 mi North 8.1 mph 18.4 mph N/A Snow Light Snow
1:35 PM 1.8 °F -12.0 °F -6.7 °F 68% 30.00 in 1.2 mi NW 8.1 mph - N/A Snow Light Snow
1:55 PM 1.4 °F -16.9 °F -9.6 °F 60% 30.01 in 3.0 mi WNW 13.8 mph 21.9 mph N/A   Haze
2:15 PM 1.6 °F -15.1 °F -12.3 °F 52% 30.02 in 4.0 mi WNW 11.5 mph 23.0 mph N/A   Haze
2:35 PM 3.2 °F -13.9 °F -14.3 °F 44% 30.03 in 10.0 mi WNW 12.7 mph 20.7 mph N/A   Overcast
2:55 PM 3.0 °F -14.1 °F -15.5 °F 42% 30.04 in 10.0 mi NW 12.7 mph 21.9 mph N/A   Overcast
3:15 PM 2.1 °F -13.6 °F -16.4 °F 42% 30.05 in 10.0 mi WNW 10.4 mph 18.4 mph N/A   Mostly Cloudy
3:35 PM 2.3 °F -8.8 °F -17.1 °F 40% 30.06 in 10.0 mi WNW 5.8 mph 16.1 mph N/A   Mostly Cloudy
3:55 PM 2.1 °F -16.0 °F -15.7 °F 43% 30.07 in 7.0 mi WNW 13.8 mph 24.2 mph N/A   Mostly Cloudy
4:16 PM 1.9 °F -12.9 °F -19.3 °F 37% 30.08 in 10.0 mi NW 9.2 mph 19.6 mph N/A   Scattered Clouds
4:35 PM 1.8 °F -14.0 °F -18.2 °F 39% 30.08 in 10.0 mi NW 10.4 mph 16.1 mph N/A   Clear
4:55 PM 1.4 °F -12.5 °F -16.2 °F 44% 30.09 in 10.0 mi NNW 8.1 mph - N/A   Scattered Clouds
5:16 PM 1.0 °F -11.7 °F -14.8 °F 48% 30.10 in 10.0 mi NNW 6.9 mph - N/A   Scattered Clouds
5:35 PM 0.5 °F -12.3 °F -14.8 °F 49% 30.10 in 10.0 mi North 6.9 mph - N/A   Clear
5:55 PM -0.2 °F -11.8 °F -14.4 °F 51% 30.11 in 10.0 mi NNW 5.8 mph - N/A   Clear
6:16 PM -1.3 °F - -13.2 °F 57% 30.12 in 10.0 mi Calm Calm - N/A   Clear
6:35 PM -2.2 °F - -13.0 °F 60% 30.13 in 10.0 mi Calm Calm - N/A   Clear
6:55 PM -3.3 °F -11.6 °F -12.8 °F 64% 30.13 in 10.0 mi North 3.5 mph - N/A   Clear
7:16 PM -4.9 °F - -13.0 °F 68% 30.14 in 10.0 mi Calm Calm - N/A   Clear
7:35 PM -7.8 °F - -13.9 °F 75% 30.14 in 10.0 mi Calm Calm - N/A   Clear
7:55 PM -9.8 °F - -15.3 °F 76% 30.15 in 10.0 mi Calm Calm - N/A   Clear
8:16 PM -11.4 °F - -16.2 °F 79% 30.15 in 10.0 mi Calm Calm - N/A   Clear
8:35 PM -12.5 °F - -17.3 °F 79% 30.16 in 10.0 mi Calm Calm - N/A   Clear
8:55 PM -12.8 °F - -17.7 °F 79% 30.16 in 10.0 mi Calm Calm - N/A   Clear
9:16 PM -14.3 °F - -19.3 °F 78% 30.17 in 10.0 mi Calm Calm - N/A   Clear
9:35 PM -14.6 °F - -19.5 °F 79% 30.18 in 10.0 mi Calm Calm - N/A   Clear
9:55 PM -15.0 °F - -19.8 °F 79% 30.18 in 10.0 mi Calm Calm - N/A   Clear
10:16 PM -16.2 °F - -21.5 °F 77% 30.19 in 10.0 mi Calm Calm - N/A   Clear
10:35 PM -17.9 °F - -23.6 °F 75% 30.19 in 10.0 mi Calm Calm - N/A   Clear
10:55 PM -18.4 °F - -24.2 °F 75% 30.19 in 10.0 mi Calm Calm - N/A   Clear
11:14 PM -18.9 °F - -24.7 °F 75% 30.20 in 10.0 mi Calm Calm - N/A   Clear
11:35 PM -19.3 °F - -25.4 °F 73% 30.20 in 10.0 mi Calm Calm - N/A   Clear
11:55 PM -20.2 °F - -26.5 °F 73% 30.20 in 10.0 mi Calm Calm - N/A   Clear